#timestamp,LO_Frequency,Hit,StdDev 
1551902415.7,286047001.0,N
1551902435.5,286047001.2,N
1551902455.3,286047000.1,N
1551902475.2,286047000.4,N
1551902495.0,286047001.2,N
1551902495.9,286047001.2,N
1551902515.7,286047000.5,N
1551902535.6,286047000.3,N
1551902555.4,286046999.8,N
1551902575.3,286047002.7,N
1551902595.1,286047000.9,N
1551902615.8,286046998.2,N
1551902635.7,286047000.6,N
1551902655.5,286047000.2,N
1551902675.4,286047000.1,N
1551902695.2,286047000.4,N
1551902715.0,286047000.9,N
1551902715.9,286047000.9,N
1551902735.8,286046999.9,N
1551902755.6,286047002.4,N
1551902775.4,286046999.7,N
1551902795.3,286047002.4,N
1551902815.1,286047000.2,N
1551902835.9,286047001.1,N
1551902855.7,286046998.1,N
1551902875.5,286047001.1,N
1551902895.4,286046998.6,N
1551902915.2,286046996.6,N
1551902935.1,286046999.1,N
1551902936.0,286046999.1,N
1551902955.8,286046998.7,N
1551902975.6,286046997.0,N
1551902995.5,286046997.0,N
1551903015.3,286046997.9,N
1551903035.1,286046996.7,N
1551903055.9,286046997.9,N
1551903075.7,286046994.9,Y
1551903095.6,286046995.3,P
1551903115.4,286046994.9,N
1551903135.2,286046994.9,N
1551903155.1,286046995.7,N
1551903156.0,286046995.7,N
1551903175.8,286046997.1,N
1551903195.7,286046996.7,N
1551903215.5,286046997.0,N
1551903235.3,286046996.6,N
1551903255.2,286046996.7,N
1551903275.0,286046996.9,N
1551903275.9,286046996.9,N
1551903295.8,286046996.7,N
1551903315.6,286046999.5,N
1551903335.4,286046999.6,N
1551903355.3,286046999.6,N
1551903375.1,286046996.7,N
1551903395.8,286046997.2,N
1551903415.7,286046996.9,N
1551903435.5,286046999.2,N
1551903455.4,286046998.1,N
1551903475.2,286046998.1,N
1551903495.0,286047000.9,N
1551903495.9,286047000.9,N
1551903515.8,286047000.3,N
1551903535.6,286047000.4,N
1551903555.4,286047002.8,N
1551903575.3,286047002.1,N
1551903595.1,286047000.3,N
1551903615.9,286047001.0,N
1551903635.7,286046999.9,N
1551903655.5,286047000.1,N
1551903675.4,286047000.9,N
1551903695.2,286047000.3,N
1551903715.0,286047001.1,N
1551903715.9,286047001.1,N
1551903735.8,286046998.5,N
1551903755.6,286046998.9,N
1551903775.5,286046997.2,N
1551903795.3,286046997.7,N
1551903815.1,286046998.0,N
1551903835.9,286046996.8,N
1551903855.7,286046997.2,N
1551903875.6,286046996.5,N
1551903895.4,286046999.5,N
1551903915.2,286046999.1,N
1551903935.1,286046999.0,N
1551903936.0,286046999.0,N
1551903955.8,286046999.2,N
1551903975.6,286047000.9,N
1551903995.5,286046998.8,N
1551904015.3,286046999.4,N
1551904035.2,286046997.0,N
1551904055.9,286046997.1,N
1551904075.7,286046997.7,N
1551904095.6,286046997.2,N
1551904115.4,286046995.0,Y
1551904135.3,286046999.3,P
1551904155.1,286046999.1,P
1551904156.0,286046999.1,P
1551904175.8,286046999.2,Y
1551904195.7,286046999.4,P
1551904215.5,286046996.9,P
1551904235.4,286046999.2,N
1551904255.2,286046999.0,N
1551904275.0,286046998.8,N
1551904275.9,286046998.8,N
1551904295.8,286046999.0,N
1551904315.6,286046998.6,N
1551904335.4,286046999.3,N
1551904355.3,286047000.8,N
1551904375.1,286047001.1,N
1551904395.9,286047002.0,N
1551904415.7,286047002.0,N
1551904435.5,286047001.5,N
1551904455.4,286047002.6,N
1551904475.2,286047002.5,N
1551904495.0,286047002.0,N
1551904496.0,286047002.0,N
1551904515.8,286047000.2,N
1551904535.6,286047000.5,N
1551904555.5,286047000.6,N
1551904575.3,286047000.5,N
1551904595.1,286046999.9,N
1551904615.9,286046999.9,N
1551904635.7,286047000.5,N
1551904655.6,286047002.5,N
1551904675.4,286047002.0,N
1551904695.2,286047002.6,N
1551904715.1,286047000.1,N
1551904716.0,286047000.1,N
1551904735.8,286047000.9,N
1551904755.6,286047002.3,N
1551904775.5,286047000.6,N
1551904795.3,286046998.6,N
1551904815.2,286047000.4,N
1551904835.9,286047000.9,N
1551904855.7,286047000.6,N
1551904875.6,286047002.4,N
1551904895.4,286047000.0,N
1551904915.3,286047002.0,N
1551904935.1,286047004.0,Y
1551904936.0,286047004.0,P
1551904955.8,286047001.0,N
1551904975.7,286047000.8,N
1551904995.5,286047001.0,N
1551905015.3,286046999.0,N
1551905035.2,286046996.9,N
1551905055.0,286046998.7,N
1551905055.9,286046998.7,N
1551905075.8,286046998.8,N
1551905095.6,286046998.3,N
1551905115.4,286046999.2,N
1551905135.3,286046996.5,N
1551905155.1,286046998.6,N
1551905175.9,286046998.6,N
1551905195.7,286047000.6,N
1551905215.5,286046998.1,N
1551905235.4,286047000.5,N
1551905255.2,286047002.3,N
1551905275.0,286047002.8,N
1551905275.9,286047002.8,N
1551905295.8,286047002.3,N
1551905315.6,286047002.1,N
1551905335.5,286047002.4,N
1551905355.3,286046999.7,N
1551905375.1,286046999.9,N
1551905395.9,286046999.9,N
1551905415.7,286047000.2,N
1551905435.5,286047001.0,N
1551905455.4,286047000.4,N
1551905475.2,286047000.4,N
1551905495.1,286047000.3,N
1551905496.0,286047000.3,N
1551905515.8,286046999.9,N
1551905535.6,286047002.7,N
1551905555.5,286047004.3,N
1551905575.3,286047003.4,N
1551905595.1,286047002.9,N
1551905615.9,286047003.2,N
1551905635.7,286047003.0,N
1551905655.6,286047003.1,N
1551905675.4,286047003.1,N
1551905695.2,286047003.7,N
1551905715.1,286047003.2,N
1551905716.0,286047003.2,N
1551905735.8,286047003.9,N
1551905755.7,286047002.0,N
1551905775.5,286047002.2,N
1551905795.3,286047001.5,N
1551905815.2,286047001.7,N
1551905835.0,286047001.3,N
1551905835.9,286047001.3,N
1551905855.7,286047003.8,N
1551905875.6,286047003.6,N
1551905895.4,286047003.7,N
1551905915.3,286047005.5,Y
1551905935.1,286047004.3,P
1551905936.0,286047004.3,P
1551905955.8,286047001.5,N
1551905975.7,286047002.0,N
1551905995.5,286047003.7,Y
